{"data":{"norad_id":65428,"intl_designator":"2025-192AA","name":"STARLINK-35004","alt_names":[],"object_type":"PAYLOAD","status":"ACTIVE","operator":null,"country":"US","launch_date":"2025-08-31","launch_site_code":"AFETR","launch_vehicle":null,"mission":null,"orbit_class":"UNKNOWN","rcs_meters":null,"size_class":null,"mass_kg":null,"dimensions":null,"purposes":["comms"],"wikipedia_slug":null,"has_3d_model":false,"image_url":null,"decayed_at":null,"tle_current":{"epoch":"2026-05-24T23:53:08.723040Z","epoch_age_seconds":75214,"freshness":"FRESH","line1":"1 65428U 25192AA  26144.99523985  .00025800  00000+0  88001-3 0  9995","line2":"2 65428  53.1581 238.1433 0001264  82.8209 277.2935 15.30205781 41064","mean_motion":15.30205781,"eccentricity":0.0001264,"inclination_deg":53.1581,"raan_deg":238.1433,"arg_perigee_deg":82.8209,"mean_anomaly_deg":277.2935,"bstar":0.00088001,"rev_number":4106,"period_min":94.10499018367,"perigee_km":474.33154692991,"apogee_km":476.06406996949,"semimajor_km":6853.3348084497,"source":"CELESTRAK","updated_at":"2026-05-25T13:38:20.804481Z"}}}